Location: Bathurst
(33.4193°S, 149.5775°E)
Time: 13:25:16
(UTC+10:00)

Vanguard 2 Rocket - Visible Passes

Search period start: 13 June 2021 00:00
Search period end: 23 June 2021 00:00
Orbit: 554 x 3325 km, 32.9° (Epoch: 12 June)

Date Brightness Start Highest point End Pass type
(mag) Time Alt. Az. Time Alt. Az. Time Alt. Az.
13 Jun 11.4 18:22:56 10° WNW 18:33:30 17° NW 18:44:31 10° N visible
14 Jun 11.3 17:19:04 10° W 17:31:56 25° NW 17:46:33 10° N visible
16 Jun 9.5 06:29:35 10° NNE 06:30:53 11° NE 06:32:17 10° ENE visible
16 Jun 11.6 17:36:23 10° WNW 17:45:32 16° NW 17:55:34 10° N visible
21 Jun 8.5 05:55:52 10° NNW 05:58:47 19° NNE 06:02:04 10° ENE visible
